Duluth, MN

2:26 PM CDT on July 22, 2017 (GMT -0500)
Duluth International

Weather History for KDLH - April, 2013

Change the Weather History Date:

Friday, April 5, 2013

  Actual Average Record
Temperature  
Mean Temperature 28 °F 35 °F  
Max Temperature 35 °F 44 °F 79 °F (1991)
Min Temperature 20 °F 26 °F 2 °F (1971)
Degree Days  
Heating Degree Days 37 30  
Month to date heating degree days 184 156  
Since 1 July heating degree days 8025 8233  
Cooling Degree Days 0 0  
Month to date cooling degree days 0 0  
Year to date cooling degree days 0 0  
Moisture  
Dew Point 16 °F    
Average Humidity 64    
Maximum Humidity 85    
Minimum Humidity 43    
Precipitation  
Precipitation 0.02 in 0.06 in 1.02 in (1947)
Month to date precipitation 0.02 0.31  
Year to date precipitation 4.61 3.57  
Snow  
Snow 0.50 in 0.30 in 7.30 in (1933)
Month to date snowfall 0.5 1.6  
Since 1 July snowfall 79.1 80.4  
Snow Depth 7.00 in    
Sea Level Pressure  
Sea Level Pressure 30.19 in    
Wind  
Wind Speed 8 mph (East)    
Max Wind Speed 15 mph    
Max Gust Speed 20 mph    
Visibility 9 miles    
Events Snow    
T = Trace of Precipitation, MM = Missing Value Source: NWS Daily Summary

Daily Weather History Graph

Daily Weather History Graph

Search for Another Location

Airport or City:

Trip Planner

Search our weather history database for the weather conditions in past years. The results will help you decide how hot, cold, wet, or windy it might be!

Date:

Astronomy

Apr. 05, 2013 Rise Set
Actual Time 6:39 AM CDT 7:43 PM CDT
Civil Twilight 6:08 AM CDT 8:14 PM CDT
Nautical Twilight 5:31 AM CDT 8:52 PM CDT
Astronomical Twilight 4:52 AM CDT 9:31 PM CDT
Moon 4:04 AM CDT (4/5) 2:52 PM CDT (4/5)
Length of Visible Light 14h 06m
Length of Day
13h 04m
Waning Crescent, 23% of the Moon is Illuminated
Apr 5
Waning Crescent
Apr 10
New
Apr 18
First Quarter
Apr 25
Full
May 2
Last Quarter

Hourly Weather History & Observations

Time (CDT) Temp. Windchill Dew Point Humidity Pressure Visibility Wind Dir Wind Speed Gust Speed Precip Events Conditions
12:55 AM 28.0 °F 21.7 °F 12.9 °F 53% 30.21 in 10.0 mi NNW 5.8 mph - N/A   Clear
1:55 AM 27.0 °F 20.5 °F 12.9 °F 56% 30.23 in 10.0 mi NNW 5.8 mph - N/A   Clear
2:55 AM 25.0 °F 20.7 °F 12.0 °F 58% 30.23 in 10.0 mi North 3.5 mph - N/A   Clear
3:55 AM 24.1 °F - 12.0 °F 60% 30.25 in 10.0 mi Calm Calm - N/A   Clear
4:55 AM 21.9 °F 15.7 °F 10.9 °F 63% 30.27 in 10.0 mi North 4.6 mph - N/A   Clear
5:55 AM 21.0 °F 14.6 °F 10.9 °F 65% 30.27 in 10.0 mi North 4.6 mph - N/A   Clear
6:55 AM 19.4 °F 12.8 °F 10.4 °F 68% 30.22 in 10.0 mi NE 4.6 mph - N/A   Clear
7:55 AM 24.1 °F 18.2 °F 10.9 °F 57% 30.30 in 10.0 mi NE 4.6 mph - N/A   Clear
8:55 AM 28.0 °F 21.7 °F 12.0 °F 51% 30.30 in 10.0 mi East 5.8 mph - N/A   Clear
9:55 AM 30.0 °F 21.7 °F 10.9 °F 45% 30.29 in 10.0 mi SSE 9.2 mph - N/A   Clear
10:55 AM 30.0 °F 22.4 °F 14.0 °F 51% 30.28 in 10.0 mi SE 8.1 mph - N/A   Clear
11:55 AM 30.9 °F 22.8 °F 14.0 °F 50% 30.27 in 10.0 mi SE 9.2 mph - N/A   Clear
12:55 PM 32.0 °F 24.2 °F 15.1 °F 50% 30.25 in 10.0 mi SE 9.2 mph - N/A   Clear
1:55 PM 34.0 °F 25.5 °F 17.1 °F 50% 30.22 in 10.0 mi East 11.5 mph - N/A   Clear
2:55 PM 34.0 °F 28.0 °F 16.0 °F 48% 30.21 in 10.0 mi ESE 6.9 mph - N/A   Clear
3:55 PM 32.0 °F 23.6 °F 19.0 °F 59% 30.19 in 10.0 mi ESE 10.4 mph - N/A   Overcast
4:55 PM 32.0 °F 24.2 °F 18.0 °F 56% 30.17 in 10.0 mi ESE 9.2 mph - N/A   Overcast
5:55 PM 32.0 °F 24.8 °F 18.0 °F 56% 30.15 in 10.0 mi ESE 8.1 mph - N/A   Overcast
6:55 PM 32.0 °F 23.0 °F 18.0 °F 56% 30.13 in 10.0 mi East 11.5 mph - N/A   Overcast
7:55 PM 32.0 °F 23.6 °F 15.1 °F 50% 30.11 in 10.0 mi East 10.4 mph - N/A   Overcast
8:55 PM 30.9 °F 21.7 °F 18.0 °F 59% 30.10 in 10.0 mi East 11.5 mph - N/A   Overcast
9:55 PM 30.9 °F 21.7 °F 19.9 °F 64% 30.10 in 10.0 mi East 11.5 mph - N/A   Overcast
10:55 PM 30.0 °F 21.1 °F 21.0 °F 69% 30.09 in 6.0 mi East 10.4 mph - 0.00 in Snow Light Snow
11:05 PM 30.2 °F 20.8 °F 21.2 °F 69% 30.02 in 2.5 mi East 11.5 mph - 0.00 in Snow Light Snow
11:15 PM 28.4 °F 18.5 °F 21.2 °F 74% 30.02 in 1.5 mi East 11.5 mph - 0.00 in Snow Light Snow
11:48 PM 28.4 °F 19.7 °F 24.8 °F 86% 30.00 in 1.8 mi East 9.2 mph - 0.01 in Snow Light Snow
11:55 PM 28.9 °F 19.8 °F 25.0 °F 85% 30.06 in 2.5 mi ESE 10.4 mph - 0.01 in Snow Light Snow